Terug naar catalogus

SMOS

ActiefWetenschapSSO
NORAD 36036·PAYLOAD·🇪🇺 EU

Gelanceerd Nov 2, 2009 vanaf Plesetsk Cosmodrome

Loading…

Volgende Passages (komende 24 uur)

TLE

VersSource: Space-Track

Epoch: Sep 14, 2026, 00:08 UTC

1 36036U 09059A   26257.00599658  .00000207  00000-0  80065-4 0  9997
2 36036  98.4436  83.0504 0001348  80.4209 279.7131 14.39765034886232

Volg SMOS in realtime met AllMySat

Download on the App Store